Regional Weather Roundup
Issued by NWS

Home | Current Version | Previous Version | Text Only | Print | Product List | Glossary Off
Versions: 1 2 3 4 5 6 7 8 9 10 11 12 13 14 15 16 17 18 19 20 21 22 23 24 25 26 27 28 29 30 31 32 33 34 35 36 37 38 39 40 41 42 43 44 45 46 47 48 49 50

000
ASUS43 KLMK 221010
RWRKY
KENTUCKY REGIONAL WEATHER ROUNDUP
NATIONAL WEATHER SERVICE LOUISVILLE KY
500 AM EST THU FEB 22 2018

NOTE "FAIR" INDICATES FEW OR NO CLOUDS BELOW 12,000 FEET
WITH NO SIGNIFICANT WEATHER AND/OR OBSTRUCTIONS TO VISIBILITY.

KYZ001>023-026-027-061>063-070>075-221100-
WESTERN AND SOUTH CENTRAL KENTUCKY

CITY           SKY/WX    TMP DP  RH WIND       PRES   REMARKS
PADUCAH          N/A     42  40  92 E12       30.21F
HENDERSON      LGT RAIN  43  42  97 E16       30.25F
OWENSBORO      LGT RAIN  44  43  96 NE7       30.28R
HOPKINSVILLE   MOCLDY    46  46 100 E6        30.24F
BOWLING GREEN  RAIN      49  49 100 N5        30.26F FOG
GLASGOW        RAIN     N/A N/A N/A NW7       30.28R
$$

KYZ024-025-028>034-038-045-046-053-221100-
NORTH CENTRAL KENTUCKY

CITY           SKY/WX    TMP DP  RH WIND       PRES   REMARKS
LOUISVILLE/SDF RAIN      44  42  93 NE7       30.33R
LOUISVILLE/LOU RAIN      43  43 100 NE13      30.33R FOG
FORT KNOX      LGT RAIN  44  44  99 NE10      30.30R
$$

KYZ035>037-039>044-047>052-055>060-089>105-221100-
NORTHEAST KENTUCKY

CITY           SKY/WX    TMP DP  RH WIND       PRES   REMARKS
LEXINGTON      RAIN      45  42  89 N10G20    30.30F FOG
COVINGTON      HVY RAIN  38  38 100 NE22      30.35F FOG     WCI  27
FRANKFORT      HVY RAIN  44  41  89 NW12      30.32R FOG
$$

KYZ054-064>069-076>088-106>120-221100-
SOUTHEAST KENTUCKY

CITY           SKY/WX    TMP DP  RH WIND       PRES   REMARKS
JACKSON        FOG       51  51 100 NE3       30.28F VSB 1/4
LONDON         FAIR      54  54 100 N3        30.27R
SOMERSET       CLOUDY    54  54 100 SE5       30.26F FOG
MIDDLESBORO    FAIR      68  60  75 S13G22    30.29S
MONTICELLO     NOT AVBL
$$




USA.gov is the U.S. government's official web portal to all federal, state and local government web resources and services.